TimeEDT,TemperatureF,Dew PointF,Humidity,Sea Level PressureIn,VisibilityMPH,Wind Direction,Wind SpeedMPH,Gust SpeedMPH,PrecipitationIn,Events,Conditions,WindDirDegrees,DateUTC
12:53 AM,53.1,52.0,96,30.04,8.0,Calm,Calm,-,N/A,,Clear,0,2013-10-21 04:53:00
1:53 AM,51.1,51.1,100,30.04,7.0,West,4.6,-,N/A,,Mostly Cloudy,270,2013-10-21 05:53:00
2:53 AM,52.0,52.0,100,30.05,10.0,Calm,Calm,-,N/A,,Mostly Cloudy,0,2013-10-21 06:53:00
3:53 AM,51.1,50.0,96,30.06,10.0,West,4.6,-,N/A,,Clear,270,2013-10-21 07:53:00
4:53 AM,51.1,50.0,96,30.05,9.0,Calm,Calm,-,N/A,,Clear,0,2013-10-21 08:53:00
5:53 AM,50.0,50.0,100,30.06,9.0,Calm,Calm,-,N/A,,Clear,0,2013-10-21 09:53:00
6:53 AM,50.0,48.9,96,30.07,10.0,Calm,Calm,-,N/A,,Partly Cloudy,0,2013-10-21 10:53:00
7:18 AM,51.8,50.0,94,30.07,10.0,Calm,Calm,-,N/A,,Mostly Cloudy,0,2013-10-21 11:18:00
7:35 AM,50.0,50.0,100,30.08,10.0,Calm,Calm,-,N/A,,Scattered Clouds,0,2013-10-21 11:35:00
7:53 AM,50.0,48.9,96,30.07,8.0,Calm,Calm,-,N/A,,Clear,0,2013-10-21 11:53:00
8:53 AM,52.0,51.1,97,30.10,9.0,Calm,Calm,-,N/A,,Mostly Cloudy,0,2013-10-21 12:53:00
9:53 AM,57.0,55.0,93,30.11,9.0,North,-9999.0,-,N/A,,Mostly Cloudy,0,2013-10-21 13:53:00
10:53 AM,64.0,57.0,78,30.11,10.0,ESE,4.6,-,N/A,,Partly Cloudy,120,2013-10-21 14:53:00
11:53 AM,66.9,57.9,73,30.11,10.0,ESE,4.6,-,N/A,,Partly Cloudy,110,2013-10-21 15:53:00
12:53 PM,69.1,57.9,68,30.10,10.0,Calm,Calm,-,N/A,,Clear,0,2013-10-21 16:53:00
1:53 PM,72.0,57.9,61,30.06,10.0,Variable,3.5,-,N/A,,Clear,0,2013-10-21 17:53:00
2:53 PM,72.0,59.0,64,30.04,10.0,East,4.6,-,N/A,,Partly Cloudy,100,2013-10-21 18:53:00
3:53 PM,72.0,60.1,66,30.03,10.0,East,5.8,-,N/A,,Partly Cloudy,100,2013-10-21 19:53:00
4:53 PM,71.1,60.1,68,30.03,10.0,ESE,5.8,-,N/A,,Partly Cloudy,110,2013-10-21 20:53:00
5:53 PM,70.0,60.1,71,30.02,10.0,East,4.6,-,N/A,,Partly Cloudy,90,2013-10-21 21:53:00
6:53 PM,66.0,60.1,81,30.01,10.0,East,4.6,-,N/A,,Clear,100,2013-10-21 22:53:00
7:53 PM,63.0,60.1,90,30.01,10.0,East,3.5,-,N/A,,Clear,80,2013-10-21 23:53:00
8:53 PM,62.1,60.1,93,30.03,10.0,Calm,Calm,-,N/A,,Clear,0,2013-10-22 00:53:00
9:53 PM,62.1,61.0,96,30.04,6.0,Calm,Calm,-,N/A,,Clear,0,2013-10-22 01:53:00
10:53 PM,62.1,61.0,96,30.05,10.0,Calm,Calm,-,N/A,,Clear,0,2013-10-22 02:53:00
11:53 PM,62.1,60.1,93,30.02,10.0,Calm,Calm,-,N/A,,Mostly Cloudy,0,2013-10-22 03:53:00